Starlink 11714

operational
NORAD ID: 64134 Int'l Des: 2025-111 Owner: SPXS Country: US Constellation: starlink
LEOCIRCULAR

About Starlink 11714

Description loading...

Live Position

Loading 3D Globe...

Upcoming Passes

Altitude History

Altitude vs Time

uPlot chart will show altitude changes over time

Two-Line Element Set

1 64134U 25111M 25352.68329437 .00309273 00000-0 23146-2 0 9999
2 64134 43.0004 101.7049 0001955 297.3934 62.6734 15.70949024 33904
Epoch: Dec 18, 2025 • Age: 27 hours

Current Status

Altitude 366.1 km
Velocity 7.69 km/s
Sub-Earth Point -41.67°S, 33.4°W
Launch Date May 24, 2025
Age 0.5 years
Type internet

Technical Details

Classification Payload
Mass 960.00 kg
Dry Mass 910.00 kg
Total Mass 960.00 kg
Length 0.30 m
Diameter 4.10 m
Span 29.00 m
Shape Box + pan
Manufacturer SPXS
Bus Type Starlink V2MD
Phase Status In Orbit
Owner/State SPXS/US

Large Constellations

Loading constellations...